FW5866 Weather Reports


time (UTC)temp
C
wind
direction
speed
KPH
gust
KPH
rain 1hr
cm
rain 24hr
cm
rain mn
cm
humidity
%
barometer
mb
20260502203047 21 58 4.8 22.5 0.00 2.18 0.33 63 1018.3
20260502201544 21 0 8.0 24.1 0.00 2.18 0.33 60 1018.5
20260502200049 21 196 8.0 24.1 0.00 2.18 0.33 64 1018.6
20260502194552 21 50 8.0 25.7 0.00 3.43 0.33 68 1018.7
20260502193101 21 87 4.8 20.9 0.00 3.43 0.33 70 1018.9
20260502191600 21 9 6.4 14.5 0.00 3.43 0.33 69 1018.9
20260502190044 21 338 6.4 19.3 0.00 3.43 0.33 70 1018.7
20260502184602 20 344 8.0 20.9 0.00 3.99 0.33 70 1018.8
20260502183051 20 296 8.0 22.5 0.00 3.99 0.33 74 1018.9
20260502181552 20 0 8.0 19.3 0.00 3.99 0.33 72 1019.1
20260502163051 18 22 6.4 17.7 0.00 5.44 0.33 84 1019.8
20260502161608 18 90 4.8 20.9 0.00 5.44 0.33 86 1019.7
20260502160113 18 320 4.8 14.5 0.00 5.44 0.33 86 1019.8
20260502151552 16 0 3.2 17.7 0.00 5.44 0.33 91 1019.5
20260502130105 12 41 3.2 12.9 0.00 5.44 0.33 95 1018.1
20260502123117 12 350 0.0 12.9 0.00 5.44 0.33 95 1017.4
20260502121546 11 91 1.6 9.7 0.00 5.44 0.33 95 1017.4
20260502114548 11 0 0.0 4.8 0.00 5.44 0.33 95 1016.9
20260502113051 11 70 0.0 4.8 0.00 5.44 0.33 95 1016.7
20260502111549 11 38 0.0 6.4 0.00 5.44 0.33 95 1016.7
20260502110050 11 53 1.6 11.3 0.00 5.44 0.33 95 1016.3
20260502104549 11 43 1.6 9.7 0.00 5.44 0.33 95 1016.2
20260502103049 11 67 4.8 17.7 0.00 5.44 0.33 95 1016.2
20260502101554 11 96 4.8 17.7 0.00 5.44 0.33 95 1016.1
20260502070049 12 36 3.2 14.5 0.10 5.44 0.28 96 1015.3
20260502064547 12 46 3.2 16.1 0.13 5.41 0.25 96 1015.8
20260502063055 12 58 1.6 16.1 0.23 5.41 0.25 95 1015.6
20260502061543 12 65 3.2 14.5 0.20 5.36 0.23 95 1016.0
20260502060049 12 0 0.0 16.1 0.18 5.31 0.18 96 1016.1
20260502054551 12 360 1.6 16.1 0.18 5.28 0.13 96 1015.2
20260502053050 12 93 1.6 19.3 0.10 5.18 0.03 96 1015.4
20260502051550 12 79 3.2 16.1 0.13 5.18 0.03 95 1014.4
20260502050048 12 96 3.2 12.9 0.13 5.16 0.00 95 1015.2
20260502044548 12 5 3.2 16.1 0.08 5.11 5.11 95 1015.6
20260502043103 12 53 3.2 17.7 0.05 5.08 5.08 95 1015.4
20260502041549 13 324 6.4 14.5 0.03 5.05 5.05 95 1015.7
20260502040107 13 5 3.2 17.7 0.00 5.03 5.03 96 1015.2
20260502034545 13 73 4.8 16.1 0.00 5.03 5.03 95 1015.3
20260502033048 13 12 3.2 16.1 0.00 5.03 5.03 96 1015.1
20260502031548 13 43 6.4 25.7 0.00 5.03 5.03 96 1014.5
20260502030054 13 0 3.2 17.7 0.00 5.03 5.03 96 1015.1
20260502024604 13 40 6.4 17.7 0.00 5.03 5.03 96 1014.4
20260502023046 13 134 6.4 22.5 0.00 5.03 5.03 96 1014.4
20260502021558 13 64 4.8 20.9 0.00 5.03 5.03 96 1014.2
20260502020051 13 58 6.4 19.3 0.00 5.03 5.03 96 1013.8
20260502014549 13 74 1.6 11.3 0.00 5.03 5.03 96 1013.6
20260502013045 13 56 0.0 14.5 0.00 5.03 5.03 96 1013.2
20260502011543 13 78 1.6 19.3 0.00 5.03 5.03 96 1012.5
20260502010051 13 28 6.4 22.5 0.03 5.03 5.03 96 1011.7
20260502004559 14 40 4.8 22.5 0.08 5.03 5.03 96 1011.0
20260502003045 14 53 4.8 22.5 0.18 5.03 5.03 96 1010.2
20260502001546 14 74 4.8 14.5 0.28 5.03 5.03 96 1010.8
20260502000046 14 85 6.4 16.1 0.48 5.00 5.00 96 1011.9
20260501234545 14 49 3.2 16.1 0.51 4.95 4.95 96 1012.9
20260501233049 14 0 0.0 16.1 0.51 4.85 4.85 96 1012.9
20260501231553 14 0 1.6 16.1 0.46 4.75 4.75 96 1013.1
20260501230047 14 0 4.8 20.9 0.23 4.52 4.52 96 1013.0
20260501224551 14 76 4.8 19.3 0.18 4.47 4.45 96 1011.8
20260501223044 14 0 1.6 17.7 0.23 4.37 4.34 95 1012.7
20260501221551 14 0 0.0 14.5 0.25 4.32 4.29 95 1013.5
20260501220059 15 69 6.4 17.7 0.30 4.32 4.29 95 1012.2
20260501214549 15 65 6.4 19.3 0.38 4.29 4.27 95 1012.1
20260501213054 15 0 4.8 19.3 0.43 4.14 4.11 95 1012.5
20260501211556 15 40 0.0 12.9 0.56 4.04 4.01 96 1012.4
20260501210055 15 137 3.2 17.7 0.69 4.01 3.99 95 1012.0
20260501204553 15 52 4.8 16.1 0.79 4.45 3.89 95 1011.9